Location: Ruggles
(41.0295°N, 82.3924°W)
Time: 14:06:32
(UTC+00:00)

Daily predictions for brighter satellites

Satellite Brightness Start Highest point End
(mag) Time Altitude Azimuth Time Altitude Azimuth Time Altitude Azimuth
Meteor PRIRODA 4.4 12:01:34 10° N 12:04:43 29° WNW 12:07:53 10° SW
CZ-4B R/B 3.3 12:02:23 10° N 12:05:36 32° WNW 12:08:51 10° SW
Cosmos 1428 Rocket 4.4 12:00:50 10° SSW 12:06:57 71° W 12:13:04 10° N
AQUARIUS 4.1 12:02:32 10° N 12:07:02 81° WNW 12:11:31 10° SSW
Cosmos 1092 Rocket 4.1 12:01:22 10° SSW 12:07:31 61° W 12:13:47 10° N
Meteor 1-19 Rocket 4.2 12:02:41 10° N 12:08:17 90° W 12:13:42 10° S
Cosmos 1805 Rocket 3.7 12:05:36 10° SSW 12:09:51 50° W 12:14:07 10° N
Cosmos 1538 Rocket 4.1 12:04:48 10° NNW 12:09:57 62° WSW 12:15:02 10° S
H-2A R/B 2.3 12:05:50 10° S 12:09:59 52° W 12:14:16 10° NNW
SMAP 3.1 12:05:28 10° N 12:10:05 66° WNW 12:14:41 10° SSW
CZ-4B DEB 4.5 12:04:57 10° NNE 12:10:26 76° ESE 12:15:52 10° S
SL-24 R/B - RUBIN 2 4.0 22:27:10 10° NNW 22:31:23 38° NE 22:35:25 10° ESE
Cosmos 540 Rocket 3.5 22:27:32 10° SSW 22:32:38 87° ESE 22:37:47 10° NNE
Cosmos 2360 4.2 22:28:27 10° NNW 22:34:13 77° ENE 22:39:55 10° SSE
USA 234 3.7 22:29:22 10° E 22:35:26 43° NNE 22:41:31 10° NW
Meteor 1-20 Rocket 4.4 22:35:25 10° N 22:41:18 86° W 22:47:08 10° S
Meteor PRIRODA 3.9 22:38:26 10° S 22:42:03 72° WSW 22:45:40 10° NNW
Cosmos 921 Rocket 4.4 22:42:34 10° SE 22:45:32 19° E 22:48:25 11° NE
Cosmos 1933 3.8 22:45:06 10° SSW 22:49:06 65° W 22:53:07 10° N
Cosmos 1812 3.1 22:45:59 10° SSE 22:49:36 42° E 22:53:16 10° NNE
CZ-4B R/B 3.6 22:48:59 10° S 22:52:58 57° W 22:56:45 10° NNW
CZ-2C R/B 3.1 22:49:44 10° SW 22:53:09 23° SSE 22:56:29 10° ESE
Cosmos 1814 Rocket 4.0 22:50:07 10° S 22:55:16 63° ESE 23:00:24 10° NNE
Meteor 1-26 Rocket 4.4 22:49:54 10° S 22:55:52 86° E 23:01:57 10° N
COSMO-SKYMED 1 3.6 22:52:18 10° NE 22:56:01 27° E 22:59:42 10° SSE
Cosmos 1570 Rocket 4.1 22:51:54 10° S 22:57:00 56° ESE 23:02:07 10° NNE
COSMOS 2455 3.2 22:52:53 10° SW 22:58:52 69° WNW 23:04:55 10° NNE
Cosmos 1633 Rocket 3.6 22:55:39 10° N 22:59:43 37° ENE 23:03:47 10° SE
X-37B 2.0 22:59:41 10° SSW 23:01:59 22° SE 23:03:24 16° ESE
Cosmos 1151 Rocket 3.1 22:57:49 10° S 23:02:01 55° E 23:06:18 10° NNE
Cosmos 1092 Rocket 4.3 22:57:17 10° N 23:03:38 75° W 23:09:55 10° S
Cosmos 1697 Rocket 3.5 22:58:20 10° NNW 23:03:50 56° WSW 23:09:17 10° S
Cosmos 2322 Rocket 3.6 23:00:31 10° N 23:04:18 18° NE 23:05:58 16° ENE
AQUARIUS 4.1 23:00:53 10° SSE 23:05:22 88° E 23:09:54 10° NNW
Cosmos 1980 Rocket 2.1 23:03:38 10° NNW 23:09:20 82° ENE 23:14:57 10° SSE
SMAP 3.5 23:08:11 10° S 23:12:48 66° WSW 23:17:27 10° NNW
CORIOLIS 4.4 23:10:04 10° S 23:15:27 77° WSW 23:20:55 10° NNW
Landsat 5 4.2 23:14:49 21° NE 23:16:35 29° E 23:20:01 10° SSE
Cosmos 2369 4.1 23:11:04 10° NNW 23:16:46 69° WSW 23:22:25 10° SSE
Cosmos 1818 4.0 23:12:22 10° NNW 23:17:35 41° NE 23:22:42 10° ESE
ISS -3.9 23:14:47 10° NW 23:18:12 76° NE 23:20:29 19° ESE
CZ-4C R/B 3.0 23:12:53 10° NNW 23:20:16 70° NE 23:28:48 10° SE
Cosmos 2142 Rocket 4.5 23:16:58 10° S 23:23:07 89° ESE 23:29:23 10° N
Cosmos 2082 Rocket 2.9 23:18:19 10° SW 23:23:52 54° WNW 23:29:25 10° NNE
SL-16 R/B 2.9 23:19:00 10° N 23:24:00 31° ENE 23:27:08 19° ESE
Cosmos 1939 Rocket 4.4 23:20:16 10° SSW 23:24:08 39° W 23:27:58 10° NNW
Meteor 1-5 Rocket 4.2 23:18:48 10° N 23:24:47 76° E 23:30:38 10° SSE
Okean O Rocket 1.9 23:21:14 10° SE 23:25:26 42° ENE 23:29:39 10° N
Cosmos 2279 Rocket 4.0 23:19:41 10° S 23:25:54 89° E 23:32:08 10° N
Cosmos 1328 Rocket 3.5 23:22:08 10° S 23:26:32 74° E 23:30:59 10° NNE
USA 306 4.5 23:24:03 10° NNW 23:27:07 19° NNE 23:27:37 18° NNE
Cosmos 1666 Rocket 3.5 23:23:14 10° N 23:27:41 86° W 23:32:04 10° S
Cosmos 1470 Rocket 3.8 23:26:49 10° N 23:31:08 47° E 23:35:27 10° SSE
ARGOS 3.2 23:26:03 10° SSE 23:31:17 54° ENE 23:36:33 10° N
Cosmos 44 Rocket 3.4 23:26:55 10° NNW 23:31:40 48° NE 23:34:46 20° ESE
Cosmos 2266 Rocket 4.2 23:27:09 10° N 23:33:19 48° ENE 23:39:29 10° SSE
Cosmos 2208 Rocket 4.1 23:28:34 10° SSW 23:33:58 85° WNW 23:39:21 11° NNE
Meteor 1-14 Rocket 4.5 23:30:27 10° NNW 23:36:20 79° W 23:42:17 10° S
Aureole 3 Rocket 4.0 23:32:56 10° SSE 23:36:40 32° E 23:37:01 32° ENE
CZ-2D R/B 3.8 23:33:18 10° S 23:37:05 60° W 23:40:53 10° NNW
MOS 1-B 4.4 23:32:26 10° SSE 23:38:12 82° WSW 23:44:01 10° NNW
Cosmos 1867 4.1 23:34:26 10° S 23:39:25 38° ESE 23:40:49 32° E
Cosmos 2278 3.8 23:34:14 10° NNW 23:39:57 80° WSW 23:45:37 10° SSE
Cosmos 2150 Rocket 4.1 23:35:44 10° N 23:40:46 48° ENE 23:45:49 10° SE
Meteor 2-15 4.3 23:35:16 10° S 23:41:20 74° E 23:47:25 10° NNE
H-2A R/B 2.2 23:36:18 10° S 23:41:28 73° WSW 23:46:31 10° NNW
ATLAS CENTAUR R/B 4.1 23:35:26 10° W 23:42:43 27° NW 23:45:46 14° N
SKYMED 2 3.5 23:40:10 12° NNE 23:44:13 87° W 23:48:33 10° SSW
USA 267 4.1 23:41:28 17° NNE 23:46:07 40° NNW 23:52:06 10° W
USA 307 4.5 23:43:42 10° NNW 23:46:33 21° N 23:46:33 21° N
USA 32 4.2 23:43:56 10° SSE 23:48:56 49° E 23:51:15 29° NNE
Cosmos 1125 Rocket 3.5 23:47:03 10° N 23:52:14 56° ENE 23:56:49 13° SE
